Simultaneous Nadir Overpasses (SNOs) Predictions

Prediction of SNOs between GOES-16 and METOP-C Satellite Orbit:

Table of predicted SNOs for the next 14.0 days since TLE Epoch: 11/7/2020
Index Date Time (GOES-16) GOES-16 Lat,Lon METOP-C Lat,Lon Distance(km) Time Diff (sec)
1 11/08/2020 02:33:45 0.03, -75.17 0.04, -75.24 7.79 80
2 11/10/2020 14:29:20 -0.02, -75.22 -0.13, -74.81 47.32 80
3 11/12/2020 02:51:00 0.02, -75.20 -0.90, -79.40 478.30 80
4 11/13/2020 02:27:42 0.02, -75.21 0.22, -74.41 91.86 80
5 11/14/2020 14:46:35 -0.02, -75.26 0.81, -78.97 422.65 80
6 11/15/2020 14:25:56 -0.02, -75.27 -0.32, -73.98 147.74 80
7 11/17/2020 02:47:37 0.01, -75.26 -0.71, -78.57 377.12 80
8 11/18/2020 02:24:18 0.01, -75.27 0.42, -73.58 193.51 80
9 11/19/2020 14:43:12 -0.00, -75.33 0.62, -78.14 320.24 80
10 11/20/2020 14:25:13 0.00, -75.35 -0.51, -73.15 250.87 80
